Voltar ao catálogo

STARLINK-30078

AtivoComunicaçõesVLEO
NORAD 56841·PAYLOAD·🇺🇸 United States

Lançado Jun 4, 2023 de Cape Canaveral Space Force Station

Loading…

Próximas Passagens (próximas 24 horas)

TLE

AtualizadoSource: CelesTrak SupGP

Época: Sep 15, 2026, 02:36 UTC

1 56841C 23079U   26258.10881944 -.00012288  00000+0 -44488-3 0  2584
2 56841  43.0027  69.6228 0001706 270.7012 231.5416 15.27596639    14

Acompanhe STARLINK-30078 em tempo real com AllMySat

Download on the App Store